Starlink 11476

operational
NORAD ID: 62228 Int'l Des: 2024-231 Owner: SPXS Country: US Constellation: starlink
LEOCIRCULAR

Über Starlink 11476

Beschreibung wird geladen...

Live-Position

3D-Globus wird geladen...

Nächste Überflüge

Höhenverlauf

Altitude vs Time

uPlot chart will show altitude changes over time

Zweizeiliger Elementsatz

1 62228U 24231L 25351.60512469 .00135854 00000-0 11063-2 0 9990
2 62228 53.1568 145.5828 0001005 74.7237 285.3892 15.69745012 60530
Epoch: 17. Dez. 2025 • Age: 10 hours

Aktueller Status

Höhe 370.6 km
Geschwindigkeit 7.69 km/s
Subsatellitenpunkt -33.97°S, 102.86°W
Startdatum 5. Dez. 2024
Alter 1 years
Typ internet

Technische Details

Klassifizierung Payload
Masse 960.00 kg
Trockenmasse 910.00 kg
Gesamtmasse 960.00 kg
Länge 0.30 m
Durchmesser 4.10 m
Spannweite 29.00 m
Form Box + pan
Hersteller SPXS
Bus-Typ Starlink V2MD
Phasenstatus In Orbit
Besitzer/Staat SPXS/US

Große Konstellationen

Loading constellations...